sat.trackr.live / text

‹ back to catalog

STARLINK-5276

NORAD 55399 · 2023-014J

PAYLOAD ACTIVE UNKNOWN

§ Identity

Operator
Country
US
Launch date
2023-01-31
Launch site
AFWTR
Launch vehicle
Mass (kg)
RCS (m²)

Purposes: comms

External: N2YO · Heavens-Above · Gunter

§ Orbital elements

Epoch: 2026-09-20T19:15:52.916256Z

Period
96.11 min
Inclination
69.9979°
Eccentricity
0.0003736
Mean motion
14.98329458 rev/d
Perigee alt
569.5 km
Apogee alt
574.7 km
Semi-major
6,950.2 km
B*
-1.5099e-5
RAAN
292.4190°
Arg perigee
269.0747°
Mean anomaly
90.9984°
Rev number
20,128

§ Raw data

STARLINK-52761 55399U 23014J   26263.80269579 -.00000273  00000+0 -15099-4 0  99972 55399  69.9979 292.4190 0003736 269.0747  90.9984 14.98329458201288

JSON: /api/v1/satellites/55399 · /tle

For live sub-satellite position, see the globe view (requires WebGL).

§ Visibility from observer

Set your observer location to see the next 7 days of passes ≥ 10°. The values pass through the URL so the page stays shareable.

No JS? Fill the form by hand. The geolocation button needs JavaScript.